Year,Month,Day,Hour,Minute,Value (Times are PST for temperature in C)
2009,07,01,00,00,11.10
2009,07,01,00,01,11.10
2009,07,01,00,02,11.10
2009,07,01,00,03,11.00
2009,07,01,00,04,11.00
2009,07,01,00,05,11.00
2009,07,01,00,06,11.00
2009,07,01,00,07,10.90
2009,07,01,00,08,10.90
2009,07,01,00,09,10.90
2009,07,01,00,10,10.90
2009,07,01,00,11,10.80
2009,07,01,00,12,10.80
2009,07,01,00,13,10.80
2009,07,01,00,14,10.70
2009,07,01,00,15,10.70
2009,07,01,00,16,10.70
2009,07,01,00,17,10.70
2009,07,01,00,18,10.70
2009,07,01,00,19,10.60
2009,07,01,00,20,10.60
2009,07,01,00,21,10.60
2009,07,01,00,22,10.60
2009,07,01,00,23,10.60
2009,07,01,00,24,10.60
2009,07,01,00,25,10.50
2009,07,01,00,26,10.50
2009,07,01,00,27,10.50
2009,07,01,00,28,10.40
2009,07,01,00,29,10.40
2009,07,01,00,30,10.40
2009,07,01,00,31,10.40
2009,07,01,00,32,10.40
2009,07,01,00,33,10.40
2009,07,01,00,34,10.40
2009,07,01,00,35,10.40
2009,07,01,00,36,10.30
2009,07,01,00,37,10.30
2009,07,01,00,38,10.30
2009,07,01,00,39,10.30
2009,07,01,00,40,10.30
2009,07,01,00,41,10.30
2009,07,01,00,42,10.30
2009,07,01,00,43,10.30
2009,07,01,00,44,10.30
2009,07,01,00,45,10.30
2009,07,01,00,46,10.30
2009,07,01,00,47,10.20
2009,07,01,00,48,10.20
2009,07,01,00,49,10.20
2009,07,01,00,50,10.10
2009,07,01,00,51,10.10
2009,07,01,00,52,10.00
2009,07,01,00,53,10.00
2009,07,01,00,54,9.90
2009,07,01,00,55,9.90
2009,07,01,00,56,9.90
2009,07,01,00,57,9.90
2009,07,01,00,58,9.90
2009,07,01,00,59,9.80
2009,07,01,01,00,9.80
2009,07,01,01,01,9.80
2009,07,01,01,02,9.80
2009,07,01,01,03,9.80
2009,07,01,01,04,9.80
2009,07,01,01,05,9.80
2009,07,01,01,06,9.80
2009,07,01,01,07,9.80
2009,07,01,01,08,9.80
2009,07,01,01,09,9.80
2009,07,01,01,10,9.80
2009,07,01,01,11,9.80
2009,07,01,01,12,9.80
2009,07,01,01,13,9.80
2009,07,01,01,14,9.80
2009,07,01,01,15,9.80
2009,07,01,01,16,9.80
2009,07,01,01,17,9.80
2009,07,01,01,18,9.80
2009,07,01,01,19,9.80
2009,07,01,01,20,9.80
2009,07,01,01,21,9.80
2009,07,01,01,22,9.80
2009,07,01,01,23,9.80
2009,07,01,01,24,9.80
2009,07,01,01,25,9.80
2009,07,01,01,26,9.80
2009,07,01,01,27,9.80
2009,07,01,01,28,9.80
2009,07,01,01,29,9.80
2009,07,01,01,30,9.80
2009,07,01,01,31,9.80
2009,07,01,01,32,9.80
2009,07,01,01,33,9.80
2009,07,01,01,34,9.80
2009,07,01,01,35,9.70
2009,07,01,01,36,9.70
2009,07,01,01,37,9.70
2009,07,01,01,38,9.70
2009,07,01,01,39,9.70
2009,07,01,01,40,9.60
2009,07,01,01,41,9.60
2009,07,01,01,42,9.60
2009,07,01,01,43,9.60
2009,07,01,01,44,9.60
2009,07,01,01,45,9.60
2009,07,01,01,46,9.60
2009,07,01,01,47,9.60
2009,07,01,01,48,9.60
2009,07,01,01,49,9.50
2009,07,01,01,50,9.50
2009,07,01,01,51,9.60
2009,07,01,01,52,9.60
2009,07,01,01,53,9.60
2009,07,01,01,54,9.60
2009,07,01,01,55,9.50
2009,07,01,01,56,9.50
2009,07,01,01,57,9.50
2009,07,01,01,58,9.50
2009,07,01,01,59,9.50
2009,07,01,02,00,9.40
2009,07,01,02,01,9.40
2009,07,01,02,02,9.40
2009,07,01,02,03,9.40
2009,07,01,02,04,9.30
2009,07,01,02,05,9.30
2009,07,01,02,06,9.30
2009,07,01,02,07,9.30
2009,07,01,02,08,9.30
2009,07,01,02,09,9.30
2009,07,01,02,10,9.30
2009,07,01,02,11,9.30
2009,07,01,02,12,9.30
2009,07,01,02,13,9.20
2009,07,01,02,14,9.20
2009,07,01,02,15,9.20
2009,07,01,02,16,9.20
2009,07,01,02,17,9.20
2009,07,01,02,18,9.20
2009,07,01,02,19,9.20
2009,07,01,02,20,9.20
2009,07,01,02,21,9.20
2009,07,01,02,22,9.20
2009,07,01,02,23,9.20
2009,07,01,02,24,9.20
2009,07,01,02,25,9.10
2009,07,01,02,26,9.10
2009,07,01,02,27,9.10
2009,07,01,02,28,9.10
2009,07,01,02,29,9.10
2009,07,01,02,30,9.10
2009,07,01,02,31,9.00
2009,07,01,02,32,9.00
2009,07,01,02,33,8.90
2009,07,01,02,34,8.90
2009,07,01,02,35,8.90
2009,07,01,02,36,8.90
2009,07,01,02,37,8.90
2009,07,01,02,38,8.90
2009,07,01,02,39,8.90
2009,07,01,02,40,8.90
2009,07,01,02,41,8.90
2009,07,01,02,42,8.90
2009,07,01,02,43,8.90
2009,07,01,02,44,8.90
2009,07,01,02,45,8.90
2009,07,01,02,46,8.90
2009,07,01,02,47,8.90
2009,07,01,02,48,8.90
2009,07,01,02,49,8.90
2009,07,01,02,50,8.90
2009,07,01,02,51,8.90
2009,07,01,02,52,8.90
2009,07,01,02,53,8.90
2009,07,01,02,54,8.90
2009,07,01,02,55,8.90
2009,07,01,02,56,8.90
2009,07,01,02,57,8.90
2009,07,01,02,58,8.90
2009,07,01,02,59,8.90
2009,07,01,03,00,8.90
2009,07,01,03,01,8.90
2009,07,01,03,02,8.90
2009,07,01,03,03,8.90
2009,07,01,03,04,8.80
2009,07,01,03,05,8.80
2009,07,01,03,06,8.80
2009,07,01,03,07,8.80
2009,07,01,03,08,8.80
2009,07,01,03,09,8.70
2009,07,01,03,10,8.70
2009,07,01,03,11,8.70
2009,07,01,03,12,8.70
2009,07,01,03,13,8.70
2009,07,01,03,14,8.70
2009,07,01,03,15,8.70
2009,07,01,03,16,8.70
2009,07,01,03,17,8.70
2009,07,01,03,18,8.70
2009,07,01,03,19,8.60
2009,07,01,03,20,8.60
2009,07,01,03,21,8.60
2009,07,01,03,22,8.60
2009,07,01,03,23,8.60
2009,07,01,03,24,8.50
2009,07,01,03,25,8.50
2009,07,01,03,26,8.50
2009,07,01,03,27,8.50
2009,07,01,03,28,8.50
2009,07,01,03,29,8.40
2009,07,01,03,30,8.40
2009,07,01,03,31,8.40
2009,07,01,03,32,8.40
2009,07,01,03,33,8.40
2009,07,01,03,34,8.40
2009,07,01,03,35,8.30
2009,07,01,03,36,8.30
2009,07,01,03,37,8.20
2009,07,01,03,38,8.20
2009,07,01,03,39,8.20
2009,07,01,03,40,8.20
2009,07,01,03,41,8.20
2009,07,01,03,42,8.20
2009,07,01,03,43,8.20
2009,07,01,03,44,8.10
2009,07,01,03,45,8.20
2009,07,01,03,46,8.10
2009,07,01,03,47,8.10
2009,07,01,03,48,8.20
2009,07,01,03,49,8.20
2009,07,01,03,50,8.20
2009,07,01,03,51,8.10
2009,07,01,03,52,8.10
2009,07,01,03,53,8.10
2009,07,01,03,54,8.10
2009,07,01,03,55,8.10
2009,07,01,03,56,8.10
2009,07,01,03,57,8.10
2009,07,01,03,58,8.10
2009,07,01,03,59,8.10
2009,07,01,04,00,8.10
2009,07,01,04,01,8.10
2009,07,01,04,02,8.00
2009,07,01,04,03,8.00
2009,07,01,04,05,7.90
2009,07,01,04,06,7.90
2009,07,01,04,07,7.90
2009,07,01,04,08,7.90
2009,07,01,04,09,7.90
2009,07,01,04,10,7.80
2009,07,01,04,11,7.80
2009,07,01,04,12,7.80
2009,07,01,04,13,7.80
2009,07,01,04,14,7.80
2009,07,01,04,15,7.80
2009,07,01,04,16,7.70
2009,07,01,04,17,7.70
2009,07,01,04,18,7.70
2009,07,01,04,19,7.70
2009,07,01,04,20,7.70
2009,07,01,04,21,7.70
2009,07,01,04,22,7.60
2009,07,01,04,23,7.60
2009,07,01,04,24,7.70
2009,07,01,04,25,7.70
2009,07,01,04,26,7.70
2009,07,01,04,27,7.70
2009,07,01,04,28,7.70
2009,07,01,04,29,7.60
2009,07,01,04,30,7.60
2009,07,01,04,31,7.60
2009,07,01,04,32,7.60
2009,07,01,04,33,7.60
2009,07,01,04,34,7.60
2009,07,01,04,35,7.60
2009,07,01,04,36,7.60
2009,07,01,04,37,7.60
2009,07,01,04,38,7.50
2009,07,01,04,39,7.50
2009,07,01,04,40,7.50
2009,07,01,04,41,7.50
2009,07,01,04,42,7.50
2009,07,01,04,43,7.50
2009,07,01,04,44,7.40
2009,07,01,04,45,7.40
2009,07,01,04,46,7.40
2009,07,01,04,47,7.40
2009,07,01,04,48,7.40
2009,07,01,04,49,7.40
2009,07,01,04,50,7.40
2009,07,01,04,51,7.30
2009,07,01,04,52,7.30
2009,07,01,04,53,7.30
2009,07,01,04,54,7.30
2009,07,01,04,55,7.30
2009,07,01,04,56,7.30
2009,07,01,04,57,7.20
2009,07,01,04,58,7.20
2009,07,01,04,59,7.20
2009,07,01,05,00,7.20
2009,07,01,05,01,7.20
2009,07,01,05,02,7.20
2009,07,01,05,03,7.20
2009,07,01,05,04,7.20
2009,07,01,05,05,7.10
2009,07,01,05,06,7.10
2009,07,01,05,07,7.10
2009,07,01,05,08,7.10
2009,07,01,05,09,7.10
2009,07,01,05,10,7.20
2009,07,01,05,11,7.20
2009,07,01,05,12,7.20
2009,07,01,05,13,7.20
2009,07,01,05,14,7.20
2009,07,01,05,15,7.20
2009,07,01,05,16,7.20
2009,07,01,05,17,7.20
2009,07,01,05,18,7.20
2009,07,01,05,19,7.20
2009,07,01,05,20,7.20
2009,07,01,05,21,7.20
2009,07,01,05,22,7.10
2009,07,01,05,23,7.10
2009,07,01,05,24,7.10
2009,07,01,05,25,7.10
2009,07,01,05,26,7.10
2009,07,01,05,27,7.10
2009,07,01,05,28,7.10
2009,07,01,05,29,7.10
2009,07,01,05,30,7.10
2009,07,01,05,31,7.10
2009,07,01,05,32,7.10
2009,07,01,05,33,7.10
2009,07,01,05,34,7.10
2009,07,01,05,35,7.10
2009,07,01,05,36,7.10
2009,07,01,05,37,7.10
2009,07,01,05,38,7.10
2009,07,01,05,39,7.10
2009,07,01,05,40,7.10
2009,07,01,05,41,7.10
2009,07,01,05,42,7.10
2009,07,01,05,43,7.10
2009,07,01,05,44,7.20
2009,07,01,05,45,7.20
2009,07,01,05,46,7.20
2009,07,01,05,47,7.20
2009,07,01,05,48,7.10
2009,07,01,05,49,7.10
2009,07,01,05,50,7.10
2009,07,01,05,51,7.10
2009,07,01,05,52,7.10
2009,07,01,05,53,7.10
2009,07,01,05,54,7.10
2009,07,01,05,55,7.00
2009,07,01,05,56,7.00
2009,07,01,05,57,7.00
2009,07,01,05,58,7.00
2009,07,01,05,59,7.00
2009,07,01,06,00,7.00
2009,07,01,06,01,7.00
2009,07,01,06,02,7.00
2009,07,01,06,03,7.00
2009,07,01,06,04,7.00
2009,07,01,06,05,7.00
2009,07,01,06,06,7.00
2009,07,01,06,07,7.00
2009,07,01,06,08,7.10
2009,07,01,06,09,7.10
2009,07,01,06,10,7.10
2009,07,01,06,11,7.10
2009,07,01,06,12,7.20
2009,07,01,06,13,7.20
2009,07,01,06,14,7.20
2009,07,01,06,15,7.20
2009,07,01,06,16,7.20
2009,07,01,06,17,7.20
2009,07,01,06,18,7.20
2009,07,01,06,19,7.20
2009,07,01,06,20,7.20
2009,07,01,06,21,7.20
2009,07,01,06,22,7.20
2009,07,01,06,23,7.20
2009,07,01,06,24,7.30
2009,07,01,06,25,7.30
2009,07,01,06,26,7.30
2009,07,01,06,27,7.30
2009,07,01,06,28,7.30
2009,07,01,06,29,7.30
2009,07,01,06,30,7.30
2009,07,01,06,31,7.30
2009,07,01,06,32,7.30
2009,07,01,06,33,7.30
2009,07,01,06,34,7.30
2009,07,01,06,35,7.30
2009,07,01,06,36,7.30
2009,07,01,06,37,7.40
2009,07,01,06,38,7.50
2009,07,01,06,39,7.60
2009,07,01,06,40,7.70
2009,07,01,06,41,7.80
2009,07,01,06,42,7.90
2009,07,01,06,43,8.00
2009,07,01,06,44,8.10
2009,07,01,06,45,8.20
2009,07,01,06,46,8.30
2009,07,01,06,47,8.40
2009,07,01,06,48,8.50
2009,07,01,06,49,8.60
2009,07,01,06,50,8.70
2009,07,01,06,51,8.80
2009,07,01,06,52,8.90
2009,07,01,06,53,9.10
2009,07,01,06,54,9.20
2009,07,01,06,55,9.30
2009,07,01,06,56,9.50
2009,07,01,06,57,9.60
2009,07,01,06,58,9.70
2009,07,01,06,59,9.80
2009,07,01,07,00,10.00
2009,07,01,07,01,10.10
2009,07,01,07,02,10.20
2009,07,01,07,03,10.30
2009,07,01,07,04,10.40
2009,07,01,07,05,10.50
2009,07,01,07,06,10.60
2009,07,01,07,07,10.70
2009,07,01,07,08,10.70
2009,07,01,07,09,10.80
2009,07,01,07,10,10.90
2009,07,01,07,11,11.00
2009,07,01,07,12,11.10
2009,07,01,07,13,11.20
2009,07,01,07,14,11.40
2009,07,01,07,15,11.50
2009,07,01,07,16,11.60
2009,07,01,07,17,11.70
2009,07,01,07,18,11.80
2009,07,01,07,19,11.90
2009,07,01,07,20,12.10
2009,07,01,07,21,12.20
2009,07,01,07,22,12.30
2009,07,01,07,23,12.50
2009,07,01,07,24,12.60
2009,07,01,07,25,12.70
2009,07,01,07,26,12.70
2009,07,01,07,27,12.80
2009,07,01,07,28,12.80
2009,07,01,07,29,12.80
2009,07,01,07,30,12.90
2009,07,01,07,31,13.00
2009,07,01,07,32,13.10
2009,07,01,07,33,13.30
2009,07,01,07,34,13.40
2009,07,01,07,35,13.50
2009,07,01,07,36,13.60
2009,07,01,07,37,13.60
2009,07,01,07,38,13.70
2009,07,01,07,39,13.80
2009,07,01,07,40,13.80
2009,07,01,07,41,13.80
2009,07,01,07,42,13.90
2009,07,01,07,43,14.00
2009,07,01,07,44,14.10
2009,07,01,07,45,14.20
2009,07,01,07,46,14.40
2009,07,01,07,47,14.50
2009,07,01,07,48,14.60
2009,07,01,07,49,14.70
2009,07,01,07,50,14.80
2009,07,01,07,51,14.90
2009,07,01,07,52,15.00
2009,07,01,07,53,15.00
2009,07,01,07,54,15.00
2009,07,01,07,55,15.20
2009,07,01,07,56,15.20
2009,07,01,07,57,15.30
2009,07,01,07,58,15.30
2009,07,01,07,59,15.40
2009,07,01,08,00,15.40
2009,07,01,08,01,15.40
2009,07,01,08,02,15.50
2009,07,01,08,03,15.60
2009,07,01,08,04,15.70
2009,07,01,08,05,15.80
2009,07,01,08,06,15.90
2009,07,01,08,07,15.90
2009,07,01,08,08,16.00
2009,07,01,08,09,16.00
2009,07,01,08,10,16.10
2009,07,01,08,11,16.20
2009,07,01,08,12,16.20
2009,07,01,08,13,16.30
2009,07,01,08,14,16.30
2009,07,01,08,15,16.30
2009,07,01,08,16,16.30
2009,07,01,08,17,16.30
2009,07,01,08,18,16.40
2009,07,01,08,19,16.40
2009,07,01,08,20,16.50
2009,07,01,08,21,16.50
2009,07,01,08,22,16.60
2009,07,01,08,23,16.70
2009,07,01,08,24,16.70
2009,07,01,08,25,16.80
2009,07,01,08,26,16.80
2009,07,01,08,27,16.90
2009,07,01,08,28,16.90
2009,07,01,08,29,17.00
2009,07,01,08,30,17.00
2009,07,01,08,31,17.10
2009,07,01,08,32,17.10
2009,07,01,08,33,17.20
2009,07,01,08,34,17.20
2009,07,01,08,35,17.20
2009,07,01,08,36,17.20
2009,07,01,08,37,17.30
2009,07,01,08,38,17.30
2009,07,01,08,39,17.30
2009,07,01,08,40,17.40
2009,07,01,08,41,17.40
2009,07,01,08,42,17.50
2009,07,01,08,43,17.60
2009,07,01,08,44,17.70
2009,07,01,08,45,17.70
2009,07,01,08,46,17.80
2009,07,01,08,47,17.80
2009,07,01,08,48,17.90
2009,07,01,08,49,17.90
2009,07,01,08,50,18.00
2009,07,01,08,51,18.00
2009,07,01,08,52,18.10
2009,07,01,08,53,18.20
2009,07,01,08,54,18.20
2009,07,01,08,55,18.30
2009,07,01,08,56,18.30
2009,07,01,08,57,18.30
2009,07,01,08,58,18.30
2009,07,01,08,59,18.30
2009,07,01,09,00,18.30
2009,07,01,09,01,18.30
2009,07,01,09,02,18.30
2009,07,01,09,03,18.30
2009,07,01,09,04,18.40
2009,07,01,09,05,18.40
2009,07,01,09,06,18.50
2009,07,01,09,07,18.50
2009,07,01,09,08,18.50
2009,07,01,09,09,18.40
2009,07,01,09,10,18.40
2009,07,01,09,11,18.50
2009,07,01,09,12,18.60
2009,07,01,09,13,18.70
2009,07,01,09,14,18.70
2009,07,01,09,15,18.80
2009,07,01,09,16,18.80
2009,07,01,09,17,18.80
2009,07,01,09,18,18.90
2009,07,01,09,19,18.90
2009,07,01,09,20,19.00
2009,07,01,09,21,19.10
2009,07,01,09,22,19.10
2009,07,01,09,23,19.20
2009,07,01,09,24,19.40
2009,07,01,09,25,19.50
2009,07,01,09,26,19.70
2009,07,01,09,27,19.80
2009,07,01,09,28,19.90
2009,07,01,09,29,20.00
2009,07,01,09,30,20.10
2009,07,01,09,31,20.10
2009,07,01,09,32,20.10
2009,07,01,09,33,20.00
2009,07,01,09,34,20.00
2009,07,01,09,35,19.90
2009,07,01,09,36,19.80
2009,07,01,09,37,19.80
2009,07,01,09,38,19.80
2009,07,01,09,39,19.80
2009,07,01,09,40,19.70
2009,07,01,09,41,19.70
2009,07,01,09,42,19.80
2009,07,01,09,43,19.80
2009,07,01,09,44,19.80
2009,07,01,09,45,19.90
2009,07,01,09,46,19.90
2009,07,01,09,47,20.00
2009,07,01,09,48,20.00
2009,07,01,09,49,20.10
2009,07,01,09,50,20.10
2009,07,01,09,51,20.10
2009,07,01,09,52,20.20
2009,07,01,09,53,20.20
2009,07,01,09,54,20.30
2009,07,01,09,55,20.30
2009,07,01,09,56,20.30
2009,07,01,09,57,20.30
2009,07,01,09,58,20.40
2009,07,01,09,59,20.40
2009,07,01,10,00,20.30
2009,07,01,10,01,20.20
2009,07,01,10,02,20.10
2009,07,01,10,03,20.00
2009,07,01,10,04,19.90
2009,07,01,10,05,19.80
2009,07,01,10,06,19.80
2009,07,01,10,07,19.80
2009,07,01,10,08,19.80
2009,07,01,10,09,19.80
2009,07,01,10,10,19.80
2009,07,01,10,11,19.80
2009,07,01,10,12,19.90
2009,07,01,10,13,19.90
2009,07,01,10,14,19.90
2009,07,01,10,15,19.90
2009,07,01,10,16,19.90
2009,07,01,10,17,19.90
2009,07,01,10,18,19.90
2009,07,01,10,19,20.00
2009,07,01,10,20,20.10
2009,07,01,10,21,20.20
2009,07,01,10,22,20.30
2009,07,01,10,23,20.40
2009,07,01,10,24,20.50
2009,07,01,10,25,20.60
2009,07,01,10,26,20.60
2009,07,01,10,27,20.50
2009,07,01,10,28,20.50
2009,07,01,10,29,20.50
2009,07,01,10,30,20.60
2009,07,01,10,31,20.60
2009,07,01,10,32,20.70
2009,07,01,10,33,20.70
2009,07,01,10,34,20.70
2009,07,01,10,35,20.70
2009,07,01,10,36,20.70
2009,07,01,10,37,20.70
2009,07,01,10,38,20.70
2009,07,01,10,39,20.60
2009,07,01,10,40,20.60
2009,07,01,10,41,20.50
2009,07,01,10,42,20.40
2009,07,01,10,43,20.30
2009,07,01,10,44,20.30
2009,07,01,10,45,20.20
2009,07,01,10,46,20.20
2009,07,01,10,47,20.30
2009,07,01,10,48,20.30
2009,07,01,10,49,20.40
2009,07,01,10,50,20.50
2009,07,01,10,51,20.60
2009,07,01,10,52,20.70
2009,07,01,10,53,20.70
2009,07,01,10,54,20.70
2009,07,01,10,55,20.60
2009,07,01,10,56,20.60
2009,07,01,10,57,20.60
2009,07,01,10,58,20.60
2009,07,01,10,59,20.60
2009,07,01,11,00,20.60
2009,07,01,11,01,20.50
2009,07,01,11,02,20.50
2009,07,01,11,03,20.60
2009,07,01,11,04,20.70
2009,07,01,11,05,20.80
2009,07,01,11,06,20.80
2009,07,01,11,07,20.80
2009,07,01,11,08,20.90
2009,07,01,11,09,21.00
2009,07,01,11,10,21.20
2009,07,01,11,11,21.30
2009,07,01,11,12,21.40
2009,07,01,11,13,21.40
2009,07,01,11,14,21.50
2009,07,01,11,15,21.50
2009,07,01,11,16,21.60
2009,07,01,11,17,21.60
2009,07,01,11,18,21.60
2009,07,01,11,19,21.70
2009,07,01,11,20,21.80
2009,07,01,11,21,21.90
2009,07,01,11,22,22.00
2009,07,01,11,23,21.90
2009,07,01,11,24,21.80
2009,07,01,11,25,21.70
2009,07,01,11,26,21.60
2009,07,01,11,27,21.40
2009,07,01,11,28,21.40
2009,07,01,11,29,21.20
2009,07,01,11,30,21.10
2009,07,01,11,31,21.00
2009,07,01,11,32,21.00
2009,07,01,11,33,21.10
2009,07,01,11,34,21.20
2009,07,01,11,35,21.30
2009,07,01,11,36,21.40
2009,07,01,11,37,21.30
2009,07,01,11,38,21.40
2009,07,01,11,39,21.40
2009,07,01,11,40,21.40
2009,07,01,11,41,21.30
2009,07,01,11,42,21.30
2009,07,01,11,43,21.40
2009,07,01,11,44,21.30
2009,07,01,11,45,21.20
2009,07,01,11,46,21.20
2009,07,01,11,47,21.20
2009,07,01,11,48,21.30
2009,07,01,11,49,21.20
2009,07,01,11,50,21.10
2009,07,01,11,51,21.10
2009,07,01,11,52,21.10
2009,07,01,11,53,21.00
2009,07,01,11,54,21.10
2009,07,01,11,55,21.10
2009,07,01,11,56,21.20
2009,07,01,11,57,21.30
2009,07,01,11,58,21.30
2009,07,01,11,59,21.30
2009,07,01,12,00,21.30
2009,07,01,12,01,21.30
2009,07,01,12,02,21.30
2009,07,01,12,03,21.40
2009,07,01,12,04,21.40
2009,07,01,12,05,21.30
2009,07,01,12,06,21.20
2009,07,01,12,07,21.20
2009,07,01,12,08,21.20
2009,07,01,12,09,21.20
2009,07,01,12,10,21.20
2009,07,01,12,11,21.20
2009,07,01,12,12,21.00
2009,07,01,12,13,20.80
2009,07,01,12,14,20.80
2009,07,01,12,15,20.90
2009,07,01,12,16,20.90
2009,07,01,12,17,21.00
2009,07,01,12,18,21.10
2009,07,01,12,19,21.10
2009,07,01,12,20,21.20
2009,07,01,12,21,21.20
2009,07,01,12,22,21.20
2009,07,01,12,23,21.20
2009,07,01,12,24,21.20
2009,07,01,12,25,21.10
2009,07,01,12,26,20.90
2009,07,01,12,27,20.70
2009,07,01,12,28,20.60
2009,07,01,12,29,20.60
2009,07,01,12,30,20.70
2009,07,01,12,31,20.80
2009,07,01,12,32,20.70
2009,07,01,12,33,20.70
2009,07,01,12,34,20.60
2009,07,01,12,35,20.60
2009,07,01,12,36,20.50
2009,07,01,12,37,20.60
2009,07,01,12,38,20.70
2009,07,01,12,39,20.90
2009,07,01,12,40,21.00
2009,07,01,12,41,21.20
2009,07,01,12,42,21.30
2009,07,01,12,43,21.30
2009,07,01,12,44,21.30
2009,07,01,12,45,21.30
2009,07,01,12,46,21.30
2009,07,01,12,47,21.30
2009,07,01,12,48,21.30
2009,07,01,12,49,21.40
2009,07,01,12,50,21.50
2009,07,01,12,51,21.40
2009,07,01,12,52,21.40
2009,07,01,12,53,21.30
2009,07,01,12,54,21.30
2009,07,01,12,55,21.30
2009,07,01,12,56,21.30
2009,07,01,12,57,21.30
2009,07,01,12,58,21.40
2009,07,01,12,59,21.40
2009,07,01,13,00,21.30
2009,07,01,13,01,21.30
2009,07,01,13,02,21.30
2009,07,01,13,03,21.20
2009,07,01,13,04,21.20
2009,07,01,13,05,21.30
2009,07,01,13,06,21.30
2009,07,01,13,07,21.30
2009,07,01,13,08,21.30
2009,07,01,13,09,21.30
2009,07,01,13,10,21.40
2009,07,01,13,11,21.40
2009,07,01,13,12,21.50
2009,07,01,13,13,21.50
2009,07,01,13,14,21.60
2009,07,01,13,15,21.80
2009,07,01,13,16,21.90
2009,07,01,13,17,22.00
2009,07,01,13,18,22.10
2009,07,01,13,19,22.20
2009,07,01,13,20,22.30
2009,07,01,13,21,22.30
2009,07,01,13,22,22.30
2009,07,01,13,23,22.30
2009,07,01,13,24,22.40
2009,07,01,13,25,22.50
2009,07,01,13,26,22.50
2009,07,01,13,27,22.50
2009,07,01,13,28,22.60
2009,07,01,13,29,22.50
2009,07,01,13,30,22.60
2009,07,01,13,31,22.60
2009,07,01,13,32,22.50
2009,07,01,13,33,22.50
2009,07,01,13,34,22.40
2009,07,01,13,35,22.50
2009,07,01,13,36,22.50
2009,07,01,13,37,22.50
2009,07,01,13,38,22.50
2009,07,01,13,39,22.50
2009,07,01,13,40,22.40
2009,07,01,13,41,22.40
2009,07,01,13,42,22.40
2009,07,01,13,43,22.40
2009,07,01,13,44,22.50
2009,07,01,13,45,22.60
2009,07,01,13,46,22.80
2009,07,01,13,47,22.80
2009,07,01,13,48,22.80
2009,07,01,13,49,22.80
2009,07,01,13,50,22.80
2009,07,01,13,51,22.80
2009,07,01,13,52,22.80
2009,07,01,13,53,22.80
2009,07,01,13,54,22.70
2009,07,01,13,55,22.80
2009,07,01,13,56,22.80
2009,07,01,13,57,22.80
2009,07,01,13,58,22.90
2009,07,01,13,59,22.90
2009,07,01,14,00,22.80
2009,07,01,14,01,22.80
2009,07,01,14,02,22.80
2009,07,01,14,03,22.80
2009,07,01,14,04,22.80
2009,07,01,14,05,22.80
2009,07,01,14,06,22.80
2009,07,01,14,07,22.90
2009,07,01,14,08,23.00
2009,07,01,14,09,23.00
2009,07,01,14,10,22.90
2009,07,01,14,11,22.90
2009,07,01,14,12,22.80
2009,07,01,14,13,22.80
2009,07,01,14,14,22.70
2009,07,01,14,15,22.80
2009,07,01,14,16,22.80
2009,07,01,14,17,22.80
2009,07,01,14,18,22.80
2009,07,01,14,19,22.90
2009,07,01,14,20,22.90
2009,07,01,14,21,23.00
2009,07,01,14,22,23.10
2009,07,01,14,23,23.10
2009,07,01,14,24,23.10
2009,07,01,14,25,23.20
2009,07,01,14,26,23.20
2009,07,01,14,27,23.30
2009,07,01,14,28,23.30
2009,07,01,14,29,23.30
2009,07,01,14,30,23.50
2009,07,01,14,31,23.50
2009,07,01,14,32,23.50
2009,07,01,14,33,23.50
2009,07,01,14,34,23.40
2009,07,01,14,35,23.30
2009,07,01,14,36,23.20
2009,07,01,14,37,23.20
2009,07,01,14,38,23.20
2009,07,01,14,39,23.10
2009,07,01,14,40,23.10
2009,07,01,14,41,23.20
2009,07,01,14,42,23.10
2009,07,01,14,43,23.10
2009,07,01,14,44,23.10
2009,07,01,14,45,23.10
2009,07,01,14,46,23.00
2009,07,01,14,47,23.10
2009,07,01,14,48,23.00
2009,07,01,14,49,23.00
2009,07,01,14,50,23.00
2009,07,01,14,51,22.90
2009,07,01,14,52,22.80
2009,07,01,14,53,22.70
2009,07,01,14,54,22.70
2009,07,01,14,55,22.70
2009,07,01,14,56,22.70
2009,07,01,14,57,22.70
2009,07,01,14,58,22.70
2009,07,01,14,59,22.70
2009,07,01,15,00,22.70
2009,07,01,15,01,22.70
2009,07,01,15,02,22.70
2009,07,01,15,03,22.80
2009,07,01,15,04,22.80
2009,07,01,15,05,22.80
2009,07,01,15,06,22.70
2009,07,01,15,07,22.70
2009,07,01,15,08,22.60
2009,07,01,15,09,22.60
2009,07,01,15,10,22.50
2009,07,01,15,11,22.50
2009,07,01,15,12,22.50
2009,07,01,15,13,22.50
2009,07,01,15,14,22.50
2009,07,01,15,15,22.60
2009,07,01,15,16,22.60
2009,07,01,15,17,22.60
2009,07,01,15,18,22.60
2009,07,01,15,19,22.70
2009,07,01,15,20,22.60
2009,07,01,15,21,22.60
2009,07,01,15,22,22.60
2009,07,01,15,23,22.60
2009,07,01,15,24,22.60
2009,07,01,15,25,22.70
2009,07,01,15,26,22.80
2009,07,01,15,27,22.90
2009,07,01,15,28,22.80
2009,07,01,15,29,22.80
2009,07,01,15,30,22.70
2009,07,01,15,31,22.70
2009,07,01,15,32,22.70
2009,07,01,15,33,22.80
2009,07,01,15,34,22.80
2009,07,01,15,35,22.70
2009,07,01,15,36,22.70
2009,07,01,15,37,22.70
2009,07,01,15,38,22.80
2009,07,01,15,39,22.70
2009,07,01,15,40,22.70
2009,07,01,15,41,22.70
2009,07,01,15,42,22.70
2009,07,01,15,43,22.70
2009,07,01,15,44,22.80
2009,07,01,15,45,22.90
2009,07,01,15,46,23.00
2009,07,01,15,47,23.00
2009,07,01,15,48,23.00
2009,07,01,15,49,23.10
2009,07,01,15,50,23.00
2009,07,01,15,51,22.90
2009,07,01,15,52,22.90
2009,07,01,15,53,22.90
2009,07,01,15,54,22.90
2009,07,01,15,55,22.80
2009,07,01,15,56,22.80
2009,07,01,15,57,22.90
2009,07,01,15,58,22.90
2009,07,01,15,59,23.00
2009,07,01,16,00,23.00
2009,07,01,16,01,23.00
2009,07,01,16,02,23.00
2009,07,01,16,03,22.90
2009,07,01,16,04,22.80
2009,07,01,16,05,22.80
2009,07,01,16,06,22.90
2009,07,01,16,07,22.90
2009,07,01,16,08,22.90
2009,07,01,16,09,22.90
2009,07,01,16,10,22.90
2009,07,01,16,11,22.90
2009,07,01,16,12,22.90
2009,07,01,16,13,23.00
2009,07,01,16,14,23.00
2009,07,01,16,15,23.00
2009,07,01,16,16,23.00
2009,07,01,16,17,23.10
2009,07,01,16,18,23.10
2009,07,01,16,19,23.10
2009,07,01,16,20,23.30
2009,07,01,16,21,23.50
2009,07,01,16,22,23.70
2009,07,01,16,23,23.80
2009,07,01,16,24,23.90
2009,07,01,16,25,24.00
2009,07,01,16,26,24.10
2009,07,01,16,27,24.20
2009,07,01,16,28,24.30
2009,07,01,16,29,24.40
2009,07,01,16,30,24.40
2009,07,01,16,31,24.30
2009,07,01,16,32,24.40
2009,07,01,16,33,24.50
2009,07,01,16,34,24.60
2009,07,01,16,35,24.60
2009,07,01,16,36,24.60
2009,07,01,16,37,24.60
2009,07,01,16,38,24.60
2009,07,01,16,39,24.60
2009,07,01,16,40,24.60
2009,07,01,16,41,24.70
2009,07,01,16,42,24.60
2009,07,01,16,43,24.60
2009,07,01,16,44,24.70
2009,07,01,16,45,24.80
2009,07,01,16,46,24.80
2009,07,01,16,47,24.90
2009,07,01,16,48,24.90
2009,07,01,16,49,25.00
2009,07,01,16,50,25.00
2009,07,01,16,51,25.00
2009,07,01,16,52,24.90
2009,07,01,16,53,24.90
2009,07,01,16,54,25.00
2009,07,01,16,55,25.00
2009,07,01,16,56,24.90
2009,07,01,16,57,24.90
2009,07,01,16,58,24.90
2009,07,01,16,59,24.90
2009,07,01,17,00,24.90
2009,07,01,17,01,24.90
2009,07,01,17,02,24.90
2009,07,01,17,03,24.80
2009,07,01,17,04,24.80
2009,07,01,17,05,24.80
2009,07,01,17,06,24.80
2009,07,01,17,07,24.80
2009,07,01,17,08,24.80
2009,07,01,17,09,24.80
2009,07,01,17,10,24.70
2009,07,01,17,11,24.60
2009,07,01,17,12,24.50
2009,07,01,17,13,24.40
2009,07,01,17,14,24.30
2009,07,01,17,15,24.20
2009,07,01,17,16,24.10
2009,07,01,17,17,24.20
2009,07,01,17,18,24.20
2009,07,01,17,19,24.30
2009,07,01,17,20,24.30
2009,07,01,17,21,24.30
2009,07,01,17,22,24.30
2009,07,01,17,23,24.40
2009,07,01,17,24,24.50
2009,07,01,17,25,24.50
2009,07,01,17,26,24.50
2009,07,01,17,27,24.60
2009,07,01,17,28,24.50
2009,07,01,17,29,24.60
2009,07,01,17,30,24.60
2009,07,01,17,31,24.60
2009,07,01,17,32,24.60
2009,07,01,17,33,24.50
2009,07,01,17,34,24.50
2009,07,01,17,35,24.50
2009,07,01,17,36,24.50